Orbital Elements at Epoch 2459200.5 (2020-Dec-17.0) TDB
Reference: JPL 16 (heliocentric ecliptic J2000)
Element | Value | Uncertainty (1-sigma) | Units |
e | .2244146821687746 | 4.6152e-08 | |
a | 2.316440931419424 | 1.6433e-08 | au |
q | 1.796597576032194 | 1.0113e-07 | au |
i | 2.770612967193076 | 4.728e-06 | deg |
node | 21.20923298221628 | 9.5738e-05 | deg |
peri | 331.5518437457587 | 9.643e-05 | deg |
M | 101.0973766050993 | 1.6813e-05 | deg |
tp | 2458838.867330142603 (2019-Dec-21.36733014) | 5.7569e-05 | TDB |
period | 1287.746186107232 3.53 | 1.3703e-05 3.752e-08 | d yr |
n | .27955819546106 | 2.9747e-09 | deg/d |
Q | 2.836284286806654 | 2.012e-08 | au |
|
| | Orbit Determination Parameters
Additional Information
|